Weather History for Sarasota, FL

Change the Weather History Date:

Thursday, July 18, 2013

  Actual Average Record
Temperature  
Mean Temperature 79 °F 82 °F  
Max Temperature 85 °F 90 °F 97 °F (1989)
Min Temperature 72 °F 75 °F 66 °F (1948)
Degree Days  
Heating Degree Days 0 0  
Month to date heating degree days 0 0  
Since 1 June heating degree days 0 0  
Since 1 July heating degree days 0 0  
Cooling Degree Days 14 18  
Month to date cooling degree days 303 308  
Year to date cooling degree days 1684 1531  
Since 1 June cooling degree days 816 780  
Growing Degree Days 28 (Base 50)    
Moisture  
Dew Point 72 °F    
Average Humidity 86    
Maximum Humidity 100    
Minimum Humidity 65    
Precipitation  
Precipitation 0.97 in 0.22 in 3.96 in (1935)
Month to date precipitation 9.79 4.66  
Year to date precipitation 26.67 25.87  
Sea Level Pressure  
Sea Level Pressure 30.07 in    
Wind  
Wind Speed 8 mph (ESE)    
Max Wind Speed 24 mph    
Max Gust Speed 28 mph    
Visibility 8 miles    
Events Rain    
T = Trace of Precipitation, MM = Missing Value Source: NWS Daily Summary

Daily Weather History Graph

Daily Weather History Graph

Search for Another Location

Airport:

Trip Planner

Search our weather history database for the weather conditions in past years. The results will help you decide how hot, cold, wet, or windy it might be!

Date:

Astronomy

Jul. 18, 2013 Rise Set
Actual Time 6:46 AM EDT 8:26 PM EDT
Civil Twilight 6:20 AM EDT 8:51 PM EDT
Nautical Twilight 5:49 AM EDT 9:22 PM EDT
Astronomical Twilight 5:17 AM EDT 9:55 PM EDT
Moon 4:24 PM EDT (7/18) 2:31 AM EDT (7/18)
Length of Visible Light 14h 31m
Length of Day
13h 39m
Waxing Gibbous, 77% of the Moon is Illuminated
Jul 18
Waxing Gibbous
Jul 22
Full
Jul 29
Last Quarter
Aug 6
New
Aug 14
First Quarter

Hourly Weather History & Observations

Time (EDT) Temp. Heat Index Dew Point Humidity Pressure Visibility Wind Dir Wind Speed Gust Speed Precip Events Conditions
12:53 AM 73.0 °F - 70.0 °F 90% 30.09 in 10.0 mi East 6.9 mph - N/A   Clear
1:53 AM 73.0 °F - 69.1 °F 87% 30.09 in 10.0 mi East 6.9 mph - N/A   Clear
2:53 AM 72.0 °F - 70.0 °F 93% 30.08 in 10.0 mi ENE 5.8 mph - N/A   Clear
3:53 AM 73.0 °F - 71.1 °F 93% 30.07 in 10.0 mi East 8.1 mph - N/A   Clear
4:53 AM 73.0 °F - 71.1 °F 93% 30.06 in 10.0 mi East 5.8 mph - N/A   Clear
5:53 AM 73.0 °F - 71.1 °F 93% 30.07 in 10.0 mi ENE 5.8 mph - N/A   Clear
6:53 AM 73.0 °F - 71.1 °F 93% 30.07 in 10.0 mi East 5.8 mph - N/A   Clear
7:53 AM 73.9 °F - 72.0 °F 93% 30.08 in 10.0 mi East 8.1 mph - N/A   Clear
8:53 AM 78.1 °F - 73.0 °F 84% 30.10 in 10.0 mi East 6.9 mph - N/A   Mostly Cloudy
9:53 AM 78.1 °F - 73.0 °F 84% 30.10 in 10.0 mi East 9.2 mph - N/A   Scattered Clouds
10:53 AM 80.1 °F 84.2 °F 73.0 °F 79% 30.11 in 10.0 mi East 9.2 mph - N/A   Clear
11:53 AM 82.0 °F 86.7 °F 72.0 °F 71% 30.11 in 10.0 mi ESE 8.1 mph - N/A   Clear
12:53 PM 84.9 °F 90.7 °F 72.0 °F 65% 30.10 in 10.0 mi SE 11.5 mph - N/A   Clear
1:53 PM 84.9 °F 90.7 °F 72.0 °F 65% 30.08 in 10.0 mi SE 10.4 mph - N/A   Scattered Clouds
2:53 PM 84.9 °F 90.7 °F 72.0 °F 65% 30.06 in 10.0 mi SSE 10.4 mph - N/A   Mostly Cloudy
3:53 PM 84.0 °F 89.0 °F 71.1 °F 65% 30.04 in 10.0 mi South 15.0 mph - N/A   Scattered Clouds
4:53 PM 82.0 °F 88.6 °F 75.0 °F 79% 30.04 in 10.0 mi SSW 12.7 mph - N/A   Mostly Cloudy
5:14 PM 80.6 °F 85.4 °F 73.4 °F 79% 30.06 in 10.0 mi South 12.7 mph - N/A   Mostly Cloudy
5:21 PM 75.2 °F - 69.8 °F 83% 30.06 in 2.0 mi East 21.9 mph 27.6 mph 0.01 in Rain Light Rain
5:23 PM 73.4 °F - 69.8 °F 88% 30.07 in 1.2 mi East 17.3 mph 27.6 mph 0.04 in Rain Heavy Rain
5:26 PM 73.4 °F - 69.8 °F 88% 30.07 in 0.8 mi East 12.7 mph 27.6 mph 0.09 in Rain Heavy Rain
5:41 PM 73.4 °F - 71.6 °F 94% 30.06 in 1.0 mi East 9.2 mph - 0.36 in Rain Heavy Rain
5:49 PM 75.2 °F - 73.4 °F 94% 30.06 in 0.8 mi SSE 19.6 mph 23.0 mph 0.52 in Rain Heavy Rain
5:53 PM 75.0 °F - 73.0 °F 94% 30.06 in 1.0 mi SSE 15.0 mph 23.0 mph 0.60 in Rain Heavy Rain
6:00 PM 75.2 °F - 73.4 °F 94% 30.06 in 3.0 mi SSE 9.2 mph - 0.13 in Rain Rain
6:53 PM 78.1 °F - 73.9 °F 87% 30.05 in 10.0 mi SE 3.5 mph - 0.37 in   Scattered Clouds
7:53 PM 77.0 °F - 73.9 °F 90% 30.04 in 10.0 mi East 3.5 mph - N/A   Partly Cloudy
8:53 PM 75.9 °F - 73.9 °F 94% 30.06 in 10.0 mi ESE 4.6 mph - N/A   Clear
9:53 PM 75.9 °F - 73.9 °F 94% 30.08 in 10.0 mi ESE 4.6 mph - N/A   Scattered Clouds
10:53 PM 75.0 °F - 73.0 °F 94% 30.08 in 10.0 mi ESE 5.8 mph - N/A   Clear
11:53 PM 73.9 °F - 73.0 °F 97% 30.09 in 10.0 mi ESE 4.6 mph - N/A   Partly Cloudy